Wind_Speed
27 27 27 27 27 27 28 28 29 30 33 35 37 38 38 39 40 41 41 42 43 44 44 44 44 43 44 44 43 43 42 42 42 42 41 40 39 38
28 29 29 29 28 28 28 29 29 30 31 34 37 38 39 40 41 42 43 44 44 45 45 46 46 45 45 46 46 45 44 44 43 42 42 42 41 40
30 30 30 29 29 29 29 30 30 30 30 32 35 37 38 39 40 42 44 45 45 46 47 47 47 47 47 47 47 46 46 45 44 44 44 44 43 42
31 31 31 31 31 30 30 31 31 31 31 31 34 36 37 38 39 40 42 44 46 47 48 48 48 49 48 48 48 47 47 47 46 45 45 45 45 44
32 32 32 32 32 32 32 32 32 32 31 31 33 35 36 38 38 39 40 43 45 46 48 49 49 50 50 49 49 49 48 48 48 47 47 46 46 46
33 33 33 33 33 33 33 33 33 32 32 32 32 34 36 37 38 38 39 41 43 46 47 49 50 50 51 51 50 50 50 50 49 49 48 47 47 47
35 35 35 35 34 34 34 33 33 33 33 33 32 33 35 37 38 38 38 40 41 44 46 48 49 50 51 51 51 51 51 51 50 50 49 49 48 47
36 37 36 36 35 35 34 34 34 33 33 33 33 33 34 36 38 38 38 39 40 42 45 47 49 50 51 51 51 52 51 52 52 51 50 50 49 49
38 38 37 37 36 35 34 34 34 34 34 33 33 33 34 35 37 37 38 38 39 41 43 45 48 49 50 51 52 52 52 52 52 52 51 51 50 50
39 38 38 38 37 36 35 35 35 34 34 33 32 33 34 35 36 37 38 39 39 41 42 44 46 48 50 51 51 52 52 52 52 52 52 52 52 51
40 40 39 38 37 36 36 35 35 35 34 33 32 32 33 35 36 36 37 38 39 40 42 43 45 47 48 50 51 52 52 53 52 52 52 52 52 52
42 41 40 39 38 38 37 36 35 34 35 34 33 33 33 34 35 36 36 37 37 38 41 43 44 46 47 49 51 52 52 53 53 52 52 52 52 52
43 42 41 40 39 38 37 36 35 35 34 34 33 34 34 34 35 36 36 37 37 37 40 42 43 44 45 47 49 51 52 52 52 52 52 52 52 52
43 43 42 41 40 39 38 37 36 35 35 34 34 34 34 34 34 35 36 36 37 38 40 41 42 43 44 45 47 49 50 51 51 51 51 51 52 52
45 44 42 42 41 40 39 38 36 35 35 34 33 33 34 34 35 35 35 35 36 36 38 40 41 42 43 43 45 47 49 49 50 50 51 52 52 51
45 44 43 42 41 40 39 38 37 36 35 34 33 33 34 34 34 34 34 34 34 35 36 38 39 40 41 42 44 45 47 48 48 49 49 50 52 51
46 44 44 43 41 40 38 37 36 35 34 33 32 32 33 33 33 32 32 32 32 33 35 36 38 39 40 41 41 42 45 46 47 48 48 49 50 51
46 45 44 42 40 39 37 36 35 35 33 32 32 31 31 31 31 31 30 30 30 30 32 34 35 36 37 38 39 41 42 44 46 47 46 47 48 49
47 45 43 42 40 38 36 35 34 34 33 32 31 30 30 30 29 29 29 28 27 28 29 31 32 34 35 36 37 39 40 43 44 45 45 46 46 47
46 44 43 41 38 36 35 34 33 32 32 31 30 30 29 29 28 27 27 26 26 26 27 28 29 31 33 35 37 38 39 40 42 43 44 44 44 45
45 43 41 39 37 35 34 33 32 31 31 30 29 28 28 27 26 26 26 25 25 25 25 26 27 29 31 33 35 36 37 38 39 41 42 42 42 42
43 41 39 37 35 34 33 31 30 30 30 28 28 27 26 25 24 24 24 24 23 23 24 25 26 27 28 30 32 34 35 36 38 38 39 40 41 40
41 39 37 35 34 33 31 30 29 28 28 27 26 25 24 24 23 22 22 22 22 22 22 23 24 24 26 28 30 32 34 34 36 38 38 39 39 39
Wind_Direction
316 313 309 304 299 295 291 287 283 279 275 272 268 263 260 257 256 253 252 251 249 247 245 244 243 242 241 240 240 239 237 237 237 237 236 236 236 237
318 315 311 307 302 298 294 290 287 283 278 275 272 268 264 259 257 254 251 250 249 248 246 244 243 242 241 239 239 239 239 238 237 237 237 237 236 237
319 317 313 309 304 300 297 293 290 287 282 276 274 271 268 264 260 256 253 251 249 248 246 245 243 242 241 240 239 239 239 239 238 237 237 237 236 237
318 317 314 310 306 302 299 296 293 290 284 278 274 273 270 267 263 259 255 252 250 249 247 246 244 243 242 241 240 239 239 239 238 237 238 238 237 237
317 316 314 311 307 303 300 298 296 293 288 281 276 273 271 269 266 261 258 254 252 249 248 246 244 243 242 241 240 239 239 238 238 238 238 238 238 237
316 315 313 311 308 304 301 298 296 294 290 285 279 275 272 270 267 264 260 257 254 251 249 247 245 243 242 242 241 240 239 238 238 238 238 237 237 236
316 315 313 310 307 304 301 298 296 295 292 288 283 278 274 270 268 265 262 259 255 253 250 247 246 244 242 241 241 240 239 238 237 237 238 237 236 236
315 314 312 309 307 305 302 299 297 295 293 289 285 281 276 272 269 267 264 260 257 254 251 248 246 244 242 241 240 240 239 238 237 237 236 237 236 235
314 313 311 309 307 305 303 300 298 295 293 290 286 282 278 274 271 268 265 261 259 256 252 249 247 245 243 241 239 239 239 238 238 237 236 236 236 235
313 312 310 309 306 305 303 301 299 296 293 291 287 283 279 276 273 270 266 263 260 257 253 250 248 246 244 242 240 238 238 238 238 237 236 236 235 235
313 312 310 308 306 305 303 301 299 296 294 292 287 283 280 277 275 272 268 263 260 257 254 250 248 246 244 242 241 240 238 237 237 237 235 235 234 234
312 311 310 308 306 304 303 302 299 296 294 291 288 284 282 279 276 273 269 265 261 257 255 252 248 246 244 242 241 240 239 238 237 236 235 234 234 233
310 310 308 307 305 304 303 301 299 296 294 291 287 285 282 280 278 274 271 267 262 257 254 252 249 247 245 242 241 240 238 237 236 235 233 233 233 232
309 308 307 306 305 303 302 300 299 296 293 291 287 285 283 281 279 276 272 268 263 258 254 253 250 248 245 242 240 239 238 236 235 233 232 231 232 232
307 307 306 304 303 302 300 299 298 296 294 291 287 285 284 281 279 277 273 269 263 259 255 252 250 247 245 241 238 237 237 235 234 233 232 231 230 230
305 305 304 303 301 300 298 298 297 296 294 291 288 286 284 283 280 276 273 269 264 259 255 251 248 246 243 240 237 236 234 234 233 232 231 230 230 229
303 302 301 301 299 298 297 296 296 295 294 292 290 287 285 283 280 277 273 270 265 260 256 251 247 245 242 239 236 234 233 232 232 231 229 228 228 228
300 300 299 298 298 296 295 294 294 294 293 292 291 289 286 283 280 277 274 270 265 261 255 250 246 243 240 237 234 232 231 230 230 229 228 227 227 227
297 297 296 296 295 295 294 293 293 292 292 291 291 290 287 283 280 277 274 270 265 260 254 250 247 243 239 235 233 231 230 229 228 228 228 227 227 227
295 294 294 294 293 292 292 291 292 292 291 290 290 290 288 284 278 275 272 269 265 260 254 251 248 243 238 234 231 229 229 228 228 227 227 226 225 226
292 292 292 291 291 290 290 290 290 290 290 290 290 290 289 285 278 273 271 268 263 259 254 249 246 243 238 234 230 228 227 226 225 225 225 225 223 224
290 290 290 289 288 288 288 288 288 288 289 289 289 289 288 285 279 272 269 266 262 257 251 247 245 241 236 231 227 226 224 224 222 221 221 221 221 222
287 287 286 286 286 287 286 287 287 287 288 288 288 287 286 284 280 273 268 263 258 255 250 248 244 238 233 229 226 224 222 221 220 219 220 220 220 220
Height
5815 5812 5809 5806 5804 5802 5800 5798 5797 5795 5793 5792 5792 5793 5794 5796 5797 5799 5801 5803 5805 5808 5811 5814 5818 5822 5826 5830 5833 5838 5842 5846 5850 5854 5859 5863 5867 5871
5808 5805 5801 5798 5795 5793 5791 5789 5787 5786 5785 5782 5781 5781 5782 5784 5785 5787 5789 5791 5794 5797 5800 5803 5807 5811 5815 5819 5823 5828 5832 5836 5841 5845 5849 5854 5858 5862
5802 5798 5794 5791 5787 5785 5782 5780 5778 5777 5776 5773 5771 5770 5770 5772 5773 5775 5777 5779 5782 5784 5788 5791 5795 5799 5803 5808 5812 5817 5822 5826 5831 5835 5840 5844 5849 5853
5795 5791 5787 5783 5780 5776 5774 5771 5769 5767 5766 5764 5762 5760 5760 5760 5761 5763 5764 5767 5769 5772 5775 5779 5783 5787 5791 5796 5801 5806 5810 5815 5820 5825 5830 5834 5839 5843
5788 5784 5779 5775 5772 5768 5765 5762 5759 5757 5755 5754 5752 5750 5749 5749 5750 5751 5752 5754 5757 5759 5762 5766 5770 5774 5779 5784 5788 5794 5799 5804 5809 5813 5818 5823 5828 5833
5780 5776 5772 5767 5763 5760 5756 5753 5750 5747 5745 5744 5742 5740 5739 5738 5738 5739 5741 5742 5744 5747 5749 5753 5757 5761 5766 5772 5777 5781 5786 5791 5796 5802 5807 5812 5817 5822
5772 5768 5763 5759 5755 5751 5747 5744 5740 5738 5735 5733 5732 5730 5728 5727 5727 5728 5729 5730 5732 5734 5737 5740 5744 5749 5753 5758 5763 5768 5773 5779 5784 5790 5796 5801 5806 5812
5764 5759 5755 5750 5746 5742 5738 5734 5731 5728 5725 5723 5721 5719 5717 5716 5716 5716 5717 5719 5721 5722 5724 5727 5731 5735 5739 5745 5750 5755 5760 5766 5772 5778 5783 5789 5795 5800
5755 5750 5746 5741 5736 5732 5728 5725 5721 5718 5715 5713 5711 5708 5707 5705 5705 5705 5705 5706 5708 5709 5711 5715 5717 5722 5726 5731 5736 5742 5747 5753 5759 5765 5771 5777 5783 5789
5746 5741 5736 5731 5727 5723 5719 5715 5711 5708 5705 5702 5700 5698 5696 5694 5693 5693 5693 5694 5696 5696 5698 5702 5704 5708 5712 5717 5722 5728 5734 5740 5746 5752 5758 5764 5770 5776
5736 5731 5726 5722 5717 5713 5709 5705 5701 5697 5694 5692 5689 5687 5685 5683 5682 5681 5681 5682 5683 5684 5685 5689 5692 5694 5699 5704 5709 5715 5720 5726 5733 5739 5745 5752 5758 5764
5726 5721 5716 5711 5707 5702 5699 5695 5691 5687 5684 5681 5678 5676 5674 5672 5670 5669 5669 5669 5671 5672 5673 5675 5678 5681 5687 5691 5696 5701 5707 5713 5719 5726 5732 5739 5745 5752
5716 5710 5705 5701 5696 5692 5688 5684 5681 5677 5674 5671 5668 5665 5663 5661 5659 5658 5657 5657 5658 5660 5661 5662 5666 5669 5673 5679 5683 5688 5693 5700 5706 5713 5719 5726 5732 5740
5705 5700 5695 5690 5685 5681 5677 5673 5670 5666 5663 5660 5657 5654 5652 5649 5647 5646 5645 5645 5646 5647 5648 5650 5653 5656 5660 5665 5670 5675 5680 5686 5693 5700 5707 5713 5720 5727
5693 5688 5684 5679 5674 5670 5666 5662 5659 5655 5652 5649 5646 5643 5641 5638 5636 5634 5633 5633 5633 5634 5635 5637 5640 5643 5647 5652 5657 5662 5667 5674 5680 5687 5694 5701 5708 5715
5681 5677 5672 5667 5663 5659 5655 5651 5647 5644 5641 5638 5635 5632 5630 5627 5625 5623 5622 5621 5622 5623 5623 5625 5628 5631 5635 5640 5645 5650 5656 5662 5668 5675 5682 5689 5696 5703
5669 5665 5660 5656 5652 5648 5644 5640 5636 5633 5630 5627 5624 5622 5619 5616 5614 5612 5611 5610 5610 5611 5612 5613 5616 5619 5623 5628 5634 5639 5645 5651 5657 5663 5670 5678 5685 5692
5657 5652 5648 5644 5640 5636 5633 5629 5626 5622 5619 5616 5614 5611 5608 5606 5604 5602 5601 5600 5600 5600 5601 5603 5605 5609 5613 5618 5623 5628 5634 5640 5646 5652 5659 5667 5674 5681
5644 5640 5635 5632 5628 5624 5621 5618 5615 5612 5609 5606 5604 5601 5598 5596 5594 5592 5591 5590 5590 5591 5591 5593 5596 5599 5603 5608 5613 5617 5623 5629 5635 5642 5649 5657 5664 5671
5630 5627 5623 5619 5616 5613 5610 5607 5604 5602 5599 5596 5594 5591 5588 5586 5585 5583 5582 5582 5582 5582 5583 5585 5587 5590 5594 5598 5602 5608 5613 5619 5626 5633 5640 5647 5654 5661
5616 5613 5610 5607 5605 5602 5599 5597 5594 5592 5589 5587 5584 5582 5579 5577 5576 5574 5574 5573 5573 5574 5575 5577 5578 5581 5584 5589 5594 5599 5605 5611 5617 5624 5630 5637 5645 5652
5603 5600 5598 5595 5593 5591 5589 5586 5584 5582 5580 5577 5575 5573 5571 5569 5567 5566 5566 5566 5566 5567 5567 5569 5570 5573 5576 5581 5585 5590 5596 5602 5609 5615 5622 5629 5636 5644
5589 5587 5586 5584 5582 5580 5578 5576 5574 5572 5570 5568 5566 5564 5563 5561 5560 5559 5558 5558 5559 5559 5560 5562 5564 5566 5569 5573 5578 5583 5588 5594 5601 5608 5614 5621 5628 5635